User: anonymous   Login
Location: Unspecified
(0.0000°N, 0.0000°E)
Time: 18:09:29
(UTC+00:00)
Language:

ERTS 1 - Orbit

View from above orbital plane
View from above orbital plane
View from above satellite
View from above satellite

Ground track
Ground track

The orbit data is extracted from the following two-line orbital elements,

1 06126U 72058A   18115.46161242 -.00000056  00000-0 -85824-5 0  9994
2 06126  99.1109  70.4893 0009010  87.5639 272.6555 13.97533242332644
Epoch (UTC): 25 April 2018 11:04:43
Eccentricity: 0.0009010
inclination: 99.1109°
perigee height: 896 km
apogee height: 909 km
right ascension of ascending node: 70.4893°
argument of perigee: 87.5639°
revolutions per day: 13.97533242
mean anomaly at epoch: 272.6555°
orbit number at epoch: 33264

The dashed part of the orbit path shows where the satellite is in the earth's shadow,  

DLR